This is the latest recevied weather packets stored in our database for station/object DL8BGD. If no packets are shown the sender has not sent any weather packets the latest 10 day(s).
| Time | Temp. | Humidity | Pressure | Rain* | Wind** | Luminosity | Snow |
|---|---|---|---|---|---|---|---|
| 1777820642 | 26.67° C | 10% | 1014.4 hPa | 0 mm | - | - | - |
| 1777788195 | 14.44° C | 49% | 1020.5 hPa | 0 mm | - | - | - |
| 1777787594 | 12.78° C | 57% | 1020.6 hPa | 0 mm | - | - | - |
| 1777786994 | 11.11° C | 62% | 1020.6 hPa | 0 mm | - | - | - |
| 1777786393 | 9.44° C | 67% | 1020.7 hPa | 0 mm | - | - | - |
| 1777785793 | 7.78° C | 70% | 1020.7 hPa | 0 mm | - | - | - |
| 1777785193 | 7.78° C | 70% | 1020.8 hPa | 0 mm | - | - | - |
| 1777737641 | 22.78° C | 18% | 1022.1 hPa | 0 mm | - | - | - |
| 1777737040 | 22.78° C | 18% | 1022.2 hPa | 0 mm | - | - | - |
| 1777736520 | 22.78° C | 19% | 1022.2 hPa | 0 mm | - | - | - |
| 1777736438 | 22.78° C | 19% | 1022.2 hPa | 0 mm | - | - | - |
| 1777735837 | 23.33° C | 18% | 1022.3 hPa | 0 mm | - | - | - |
| 1777735242 | 22.78° C | 17% | - | 0 mm | - | - | - |
| 1777735237 | 22.78° C | 17% | 1022.4 hPa | 0 mm | - | - | - |
| 1777734637 | 23.33° C | 19% | 1022.5 hPa | 0 mm | - | - | - |
| 1777734036 | 23.33° C | 18% | 1022.7 hPa | 0 mm | - | - | - |
| 1777733436 | 23.33° C | 18% | 1022.8 hPa | 0 mm | - | - | - |
| 1777732835 | 23.33° C | 17% | 1022.9 hPa | 0 mm | - | - | - |
| 1777732235 | 23.33° C | 17% | 1023 hPa | 0 mm | - | - | - |
| 1777731635 | 23.89° C | 16% | 1023.1 hPa | 0 mm | - | - | - |
| 1777731034 | 23.89° C | 18% | 1023.2 hPa | 0 mm | - | - | - |
| 1777730434 | 23.33° C | 17% | 1023.3 hPa | 0 mm | - | - | - |
| 1777729834 | 23.33° C | 17% | 1023.4 hPa | 0 mm | - | - | - |
| 1777729233 | 23.89° C | 16% | 1023.5 hPa | 0 mm | - | - | - |
| 1777728633 | 23.89° C | 16% | 1023.6 hPa | 0 mm | - | - | - |
* Rain since midnight (hover to see other rain measurements)
** Current wind speed in m/s (hover to see current wind gust speed)